Location: Ward Pound Ridge Reservation
(41.2500°N, 73.6000°W)
Time: 15:25:29
(UTC-05:00)

Envisat - Pass Details

Date: 08 October 2017
Orbit: 764 x 766 km, 98.2° (Epoch: 18 December)

Event Time Altitude Azimuth Distance (km) Brightness Sun altitude
Exits shadow 20:41:26 84° 39° (NE) 776 2.8 -26.4°
Drops below altitude 10° 20:46:26 10° 348° (NNW) 2,312 5.8 -27.3°
Sets 20:48:45 0° 348° (NNW) 3,243 6.6 -27.7°
